Location: Jetmore
(38.0845°N, 99.8935°W)
Time: 01:41:16
(UTC+00:00)

Nauka - Pass Details

Date: 22 September 2021
Orbit: 418 x 423 km, 51.6° (Epoch: 14 October)

Event Time Altitude Azimuth Distance (km) Brightness Sun altitude
Rises 01:45:41 0° 278° (W) 2,357 ? -14.2°
Reaches altitude 10° 01:48:32 10° 305° (NW) 1,497 ? -14.7°
Maximum altitude 01:50:27 14° 339° (NNW) 1,263 ? -15.1°
Drops below altitude 10° 01:52:22 10° 15° (NNE) 1,501 ? -15.4°
Enters shadow 01:53:49 - 31° (NNE) 1,898 ? -15.7°
